When you browse on this site, cookies collect data to enhance your experience and personalize the content and advertising you see.
Visit our Privacy Policy to learn more. By continuing to use the site, you agree to this use of cookies and data.
EN

Hourly Weather Ostrovyanskiy

Today, 28 September, Monday

Time Temperature Precipitation Wind Pressure Humidity
00:00 +13°C° 0 mm 9 mps 754 mmHg 53%
01:00 +13°C° 0 mm 8 mps 754 mmHg 54%
02:00 +13°C° 0 mm 8 mps 754 mmHg 54%
03:00 +12°C° 0 mm 8 mps 754 mmHg 55%
04:00 +12°C° 0 mm 7 mps 754 mmHg 54%
05:00 +12°C° 0 mm 7 mps 754 mmHg 54%
06:00 +12°C° 0 mm 7 mps 755 mmHg 53%
07:00 +15°C° 0 mm 8 mps 755 mmHg 50%
08:00 +16°C° 0 mm 9 mps 755 mmHg 46%
09:00 +17°C° 0 mm 9 mps 755 mmHg 43%
10:00 +19°C° 0 mm 9 mps 755 mmHg 39%
11:00 +22°C° 0 mm 9 mps 755 mmHg 35%
12:00 +23°C° 0 mm 9 mps 755 mmHg 31%
13:00 +24°C° 0 mm 9 mps 755 mmHg 31%
14:00 +24°C° 0 mm 9 mps 755 mmHg 30%
15:00 +24°C° 0 mm 9 mps 754 mmHg 30%
16:00 +23°C° 0 mm 8 mps 755 mmHg 32%
17:00 +22°C° 0 mm 8 mps 755 mmHg 34%
18:00 +21°C° 0 mm 7 mps 755 mmHg 37%
19:00 +18°C° 0 mm 7 mps 755 mmHg 40%
20:00 +17°C° 0 mm 7 mps 755 mmHg 42%
21:00 +16°C° 0 mm 8 mps 755 mmHg 45%
22:00 +15°C° 0 mm 7 mps 755 mmHg 49%
23:00 +14°C° 0 mm 7 mps 755 mmHg 52%

Tomorrow, 29 September, Tuesday

Time Temperature Precipitation Wind Pressure Humidity
00:00 +12°C° 0 mm 7 mps 755 mmHg 56%
01:00 +11°C° 0 mm 7 mps 755 mmHg 60%
02:00 +11°C° 0 mm 6 mps 755 mmHg 63%
03:00 +11°C° 0 mm 6 mps 755 mmHg 67%
04:00 +10°C° 0 mm 6 mps 755 mmHg 68%
05:00 +10°C° 0 mm 6 mps 755 mmHg 70%
06:00 +10°C° 0 mm 6 mps 754 mmHg 72%
07:00 +12°C° 0 mm 7 mps 754 mmHg 63%
08:00 +15°C° 0 mm 8 mps 754 mmHg 55%
09:00 +17°C° 0 mm 9 mps 754 mmHg 47%
10:00 +19°C° 0 mm 9 mps 754 mmHg 42%
11:00 +21°C° 0 mm 9 mps 753 mmHg 38%
12:00 +23°C° 0 mm 9 mps 753 mmHg 33%
13:00 +23°C° 0 mm 9 mps 752 mmHg 30%
14:00 +24°C° 0 mm 9 mps 752 mmHg 27%
15:00 +26°C° 0 mm 9 mps 752 mmHg 24%
16:00 +23°C° 0 mm 9 mps 751 mmHg 27%
17:00 +22°C° 0 mm 8 mps 751 mmHg 30%
18:00 +21°C° 0 mm 7 mps 751 mmHg 33%
19:00 +20°C° 0 mm 8 mps 751 mmHg 36%
20:00 +18°C° 0 mm 9 mps 750 mmHg 40%
21:00 +17°C° 0 mm 10 mps 750 mmHg 43%
22:00 +16°C° 0 mm 9 mps 750 mmHg 45%
23:00 +15°C° 0 mm 9 mps 750 mmHg 46%

Day after tomorrow, 30 September, Wednesday

Time Temperature Precipitation Wind Pressure Humidity
00:00 +13°C° 0 mm 9 mps 749 mmHg 48%
01:00 +13°C° 0 mm 9 mps 749 mmHg 50%
02:00 +13°C° 0 mm 9 mps 749 mmHg 52%
03:00 +12°C° 0 mm 9 mps 749 mmHg 54%
04:00 +12°C° 0 mm 9 mps 749 mmHg 55%
05:00 +12°C° 0 mm 9 mps 749 mmHg 55%
06:00 +12°C° 0 mm 8 mps 748 mmHg 55%
07:00 +15°C° 0 mm 9 mps 748 mmHg 51%
08:00 +16°C° 0 mm 10 mps 748 mmHg 46%
09:00 +17°C° 0 mm 11 mps 748 mmHg 41%
10:00 +19°C° 0 mm 12 mps 748 mmHg 37%
11:00 +22°C° 0 mm 12 mps 748 mmHg 32%
12:00 +23°C° 0 mm 12 mps 747 mmHg 27%
13:00 +23°C° 0 mm 12 mps 747 mmHg 26%
14:00 +24°C° 0 mm 12 mps 747 mmHg 24%
15:00 +24°C° 0 mm 12 mps 746 mmHg 23%
16:00 +23°C° 0 mm 12 mps 746 mmHg 26%
17:00 +22°C° 0 mm 11 mps 747 mmHg 29%
18:00 +21°C° 0 mm 11 mps 747 mmHg 31%
19:00 +19°C° 0 mm 11 mps 747 mmHg 34%
20:00 +18°C° 0 mm 11 mps 747 mmHg 37%
21:00 +16°C° 0 mm 11 mps 748 mmHg 40%
22:00 +16°C° 0 mm 10 mps 748 mmHg 43%
23:00 +14°C° 0 mm 10 mps 748 mmHg 45%

1 October, Thursday

Time Temperature Precipitation Wind Pressure Humidity
00:00 +15°C° 0 mm 9 mps 748 mmHg 48%
01:00 +15°C° 0 mm 9 mps 748 mmHg 49%
02:00 +15°C° 0 mm 8 mps 748 mmHg 50%
03:00 +15°C° 0 mm 8 mps 748 mmHg 51%
04:00 +15°C° 0 mm 8 mps 748 mmHg 51%
05:00 +15°C° 0 mm 8 mps 748 mmHg 51%
06:00 +15°C° 0 mm 8 mps 748 mmHg 51%
07:00 +16°C° 0 mm 9 mps 748 mmHg 47%
08:00 +17°C° 0 mm 10 mps 748 mmHg 44%
09:00 +18°C° 0 mm 11 mps 748 mmHg 41%
10:00 +21°C° 0 mm 11 mps 748 mmHg 36%
11:00 +22°C° 0 mm 11 mps 748 mmHg 31%
12:00 +23°C° 0 mm 11 mps 747 mmHg 27%
13:00 +24°C° 0 mm 11 mps 747 mmHg 26%
14:00 +24°C° 0 mm 11 mps 747 mmHg 26%
15:00 +24°C° 0 mm 11 mps 747 mmHg 25%
16:00 +23°C° 0 mm 10 mps 747 mmHg 28%
17:00 +21°C° 0 mm 9 mps 747 mmHg 30%
18:00 +20°C° 0 mm 8 mps 747 mmHg 32%
19:00 +18°C° 0 mm 8 mps 747 mmHg 34%
20:00 +17°C° 0 mm 7 mps 748 mmHg 36%
21:00 +16°C° 0 mm 7 mps 748 mmHg 38%
22:00 +16°C° 0.1 mm 8 mps 748 mmHg 41%
23:00 +14°C° 0.1 mm 10 mps 748 mmHg 45%

2 October, Friday

Time Temperature Precipitation Wind Pressure Humidity
00:00 +14°C° 0.1 mm 11 mps 748 mmHg 49%
01:00 +14°C° 0.1 mm 10 mps 748 mmHg 50%
02:00 +14°C° 0.1 mm 10 mps 748 mmHg 50%
03:00 +15°C° 0.1 mm 9 mps 748 mmHg 51%
04:00 +13°C° 0 mm 8 mps 748 mmHg 52%
05:00 +13°C° 0 mm 8 mps 748 mmHg 53%
06:00 +14°C° 0 mm 7 mps 748 mmHg 55%
07:00 +15°C° 0 mm 8 mps 748 mmHg 51%
08:00 +17°C° 0 mm 9 mps 748 mmHg 47%
09:00 +18°C° 0 mm 9 mps 748 mmHg 43%
10:00 +21°C° 0 mm 9 mps 748 mmHg 39%
11:00 +22°C° 0 mm 9 mps 748 mmHg 36%
12:00 +24°C° 0 mm 9 mps 748 mmHg 32%
13:00 +24°C° 0 mm 9 mps 748 mmHg 32%
14:00 +26°C° 0 mm 9 mps 748 mmHg 31%
15:00 +26°C° 0 mm 9 mps 748 mmHg 31%
16:00 +24°C° 0 mm 8 mps 748 mmHg 33%
17:00 +22°C° 0 mm 7 mps 748 mmHg 36%
18:00 +21°C° 0 mm 7 mps 748 mmHg 38%
19:00 +20°C° 0 mm 7 mps 748 mmHg 41%
20:00 +18°C° 0 mm 7 mps 748 mmHg 43%
21:00 +18°C° 0 mm 8 mps 749 mmHg 46%
22:00 +17°C° 0 mm 7 mps 749 mmHg 50%
23:00 +16°C° 0 mm 7 mps 749 mmHg 55%

3 October, Saturday

Time Temperature Precipitation Wind Pressure Humidity
00:00 +15°C° 0 mm 7 mps 749 mmHg 59%
01:00 +15°C° 0 mm 6 mps 749 mmHg 61%
02:00 +14°C° 0 mm 6 mps 749 mmHg 63%
03:00 +14°C° 0 mm 6 mps 749 mmHg 64%
04:00 +14°C° 0 mm 6 mps 750 mmHg 63%
05:00 +13°C° 0 mm 6 mps 750 mmHg 63%
06:00 +13°C° 0 mm 6 mps 750 mmHg 62%
07:00 +15°C° 0 mm 6 mps 750 mmHg 57%
08:00 +16°C° 0 mm 6 mps 750 mmHg 53%
09:00 +17°C° 0 mm 7 mps 751 mmHg 48%
10:00 +20°C° 0 mm 7 mps 751 mmHg 43%
11:00 +22°C° 0 mm 7 mps 751 mmHg 38%
12:00 +23°C° 0 mm 7 mps 751 mmHg 33%
13:00 +24°C° 0.2 mm 7 mps 750 mmHg 32%
14:00 +24°C° 0.2 mm 6 mps 750 mmHg 31%
15:00 +26°C° 0.2 mm 6 mps 750 mmHg 30%
16:00 +25°C° 0.1 mm 5 mps 750 mmHg 32%
17:00 +23°C° 0.1 mm 5 mps 750 mmHg 35%
18:00 +22°C° 0.1 mm 4 mps 750 mmHg 37%
19:00 +21°C° 0 mm 5 mps 750 mmHg 39%
20:00 +20°C° 0 mm 6 mps 751 mmHg 41%
21:00 +20°C° 0 mm 6 mps 751 mmHg 43%
22:00 +19°C° 0 mm 6 mps 751 mmHg 47%
23:00 +17°C° 0 mm 6 mps 751 mmHg 51%
Show more